Temp
-4 -4 -4 -4 -4 -4 -5 -5 -6 -6 -6 -6 -6 -6 -5 -5 -5 -5 -5 -4 -4 -4 -5 -5 -5 -6 -6 -6 -5 -5 -5 -4 -4 -4 -4 -4 -4 -4 -4 -4 -4 -4 -4 -4 -4 -4 -4 -4 -4
-4 -4 -4 -4 -4 -4 -4 -5 -6 -6 -6 -6 -6 -6 -6 -5 -5 -6 -5 -5 -4 -4 -4 -5 -5 -5 -6 -6 -6 -6 -6 -5 -5 -5 -5 -5 -5 -5 -4 -4 -4 -4 -5 -5 -5 -5 -5 -5 -5
-5 -4 -4 -4 -3 -3 -4 -5 -6 -6 -6 -6 -6 -6 -6 -6 -5 -6 -5 -5 -5 -4 -4 -5 -6 -6 -6 -7 -7 -7 -7 -6 -6 -6 -5 -5 -6 -5 -5 -5 -5 -5 -5 -5 -5 -5 -5 -5 -5
-4 -4 -4 -4 -4 -3 -4 -5 -5 -6 -6 -6 -6 -6 -6 -6 -6 -6 -6 -6 -6 -6 -6 -6 -6 -7 -6 -6 -6 -6 -7 -7 -7 -6 -6 -6 -6 -6 -6 -6 -5 -5 -6 -6 -6 -6 -6 -6 -6
-4 -4 -4 -3 -3 -4 -5 -5 -6 -6 -6 -6 -5 -6 -6 -6 -6 -6 -6 -6 -6 -6 -6 -6 -6 -6 -6 -6 -7 -7 -7 -7 -6 -6 -6 -6 -7 -6 -6 -6 -6 -6 -6 -6 -6 -6 -6 -6 -6
-5 -5 -4 -4 -4 -5 -5 -5 -5 -6 -6 -5 -5 -5 -6 -6 -6 -6 -6 -6 -6 -6 -6 -6 -6 -6 -6 -6 -6 -6 -7 -7 -7 -7 -7 -7 -7 -7 -7 -6 -6 -6 -6 -6 -6 -7 -7 -7 -7
-6 -6 -5 -5 -5 -5 -6 -5 -5 -6 -6 -6 -5 -5 -6 -6 -6 -6 -6 -6 -7 -7 -6 -7 -7 -7 -7 -6 -6 -6 -6 -6 -6 -6 -7 -7 -7 -6 -6 -7 -7 -7 -7 -7 -7 -7 -7 -7 -7
-6 -6 -5 -5 -6 -6 -6 -6 -5 -5 -6 -6 -6 -6 -7 -7 -7 -7 -7 -7 -7 -7 -7 -7 -7 -7 -7 -7 -6 -6 -6 -7 -7 -7 -6 -6 -6 -6 -6 -7 -7 -7 -7 -7 -7 -8 -8 -8 -8
-6 -5 -5 -5 -6 -8 -7 -7 -6 -6 -6 -7 -6 -6 -7 -7 -8 -7 -8 -8 -8 -8 -8 -7 -7 -7 -7 -7 -7 -6 -7 -7 -7 -7 -7 -7 -6 -7 -6 -7 -7 -7 -8 -8 -8 -8 -8 -8 -9
-6 -5 -5 -6 -7 -8 -7 -7 -7 -7 -6 -6 -7 -7 -7 -8 -8 -8 -8 -8 -8 -9 -8 -8 -8 -8 -8 -7 -7 -7 -7 -7 -7 -7 -7 -7 -7 -7 -7 -7 -8 -8 -8 -8 -8 -9 -9 -9 -9
-6 -6 -7 -7 -7 -7 -7 -7 -7 -7 -7 -6 -6 -6 -7 -7 -8 -8 -9 -9 -9 -9 -9 -8 -8 -9 -9 -8 -8 -8 -8 -8 -8 -7 -8 -8 -8 -8 -8 -8 -8 -8 -8 -8 -9 -9 -9 -9 -9
-7 -6 -7 -7 -8 -7 -7 -7 -6 -7 -7 -6 -6 -7 -7 -7 -8 -8 -8 -8 -8 -9 -9 -8 -8 -9 -9 -9 -9 -9 -8 -8 -8 -8 -8 -8 -8 -8 -8 -8 -9 -8 -8 -9 -9 -9 -9 -9 -9
-7 -6 -7 -8 -8 -7 -7 -6 -6 -6 -7 -6 -6 -6 -7 -7 -7 -8 -8 -8 -8 -9 -9 -10 -9 -9 -9 -9 -9 -9 -9 -9 -9 -9 -8 -8 -9 -9 -8 -9 -9 -9 -9 -9 -9 -8 -8 -9 -9
-6 -7 -7 -7 -7 -7 -7 -7 -6 -6 -7 -6 -6 -6 -6 -7 -7 -7 -7 -8 -8 -9 -10 -9 -9 -9 -9 -10 -10 -9 -9 -9 -9 -9 -9 -9 -8 -8 -7 -8 -8 -9 -9 -8 -9 -9 -8 -9 -9
-7 -7 -7 -7 -7 -7 -7 -6 -6 -7 -7 -7 -7 -7 -7 -7 -7 -8 -8 -8 -9 -10 -9 -10 -10 -10 -10 -10 -10 -10 -10 -10 -10 -10 -10 -9 -9 -8 -7 -8 -8 -8 -9 -9 -9 -8 -8 -9 -10
-7 -7 -7 -6 -7 -7 -7 -6 -7 -7 -8 -8 -7 -7 -7 -7 -7 -8 -8 -9 -9 -9 -10 -10 -10 -10 -10 -10 -10 -10 -10 -10 -10 -9 -9 -9 -9 -9 -8 -8 -9 -9 -9 -9 -9 -9 -9 -10 -10
-8 -7 -7 -7 -7 -7 -7 -7 -8 -8 -8 -8 -8 -7 -7 -7 -7 -7 -8 -9 -9 -10 -10 -10 -10 -10 -10 -10 -10 -10 -10 -10 -10 -10 -9 -9 -9 -9 -8 -8 -8 -8 -8 -9 -8 -9 -10 -10 -10
-7 -7 -7 -7 -7 -8 -7 -7 -8 -8 -8 -8 -8 -7 -7 -7 -7 -9 -9 -9 -10 -10 -10 -10 -10 -10 -10 -10 -10 -10 -10 -10 -10 -10 -9 -9 -9 -9 -9 -9 -9 -8 -9 -8 -9 -9 -10 -10 -10
-9 -8 -8 -8 -8 -8 -8 -8 -8 -9 -9 -8 -8 -8 -8 -8 -8 -9 -9 -10 -10 -11 -11 -11 -11 -11 -11 -11 -11 -11 -10 -10 -10 -10 -10 -10 -9 -9 -9 -7 -10 -9 -10 -9 -9 -10 -10 -10 -10
-9 -9 -9 -9 -9 -9 -9 -8 -9 -9 -9 -9 -8 -8 -8 -8 -8 -9 -9 -9 -10 -11 -11 -11 -11 -11 -11 -11 -11 -11 -11 -10 -10 -10 -11 -10 -10 -10 -9 -9 -9 -9 -10 -9 -10 -10 -10 -10 -10
-9 -9 -9 -10 -10 -9 -9 -9 -9 -9 -9 -9 -8 -8 -8 -8 -9 -9 -9 -9 -10 -11 -11 -11 -11 -11 -11 -11 -11 -11 -11 -11 -11 -11 -11 -11 -10 -10 -10 -10 -10 -10 -10 -11 -11 -11 -10 -11 -10
-10 -10 -10 -10 -10 -10 -10 -10 -9 -9 -9 -9 -9 -8 -8 -8 -9 -9 -10 -10 -11 -11 -10 -11 -11 -11 -12 -12 -12 -11 -11 -11 -11 -11 -11 -11 -11 -10 -11 -11 -11 -11 -11 -11 -12 -12 -11 -11 -10
-11 -11 -12 -12 -12 -12 -11 -11 -9 -9 -9 -9 -9 -9 -8 -9 -9 -10 -11 -11 -11 -11 -11 -11 -12 -11 -11 -12 -12 -11 -11 -12 -12 -12 -11 -11 -11 -12 -11 -11 -12 -12 -12 -12 -11 -12 -12 -12 -12
-15 -13 -14 -15 -15 -14 -11 -11 -9 -9 -9 -9 -9 -9 -9 -9 -10 -10 -11 -11 -11 -11 -12 -12 -12 -12 -12 -12 -12 -12 -13 -12 -12 -12 -12 -11 -11 -11 -12 -13 -13 -13 -13 -12 -12 -13 -12 -12 -12
-17 -16 -15 -16 -16 -11 -12 -11 -8 -9 -9 -10 -10 -10 -10 -10 -11 -11 -11 -11 -12 -12 -13 -13 -13 -13 -12 -13 -13 -13 -13 -12 -12 -12 -12 -12 -12 -13 -13 -13 -13 -13 -13 -13 -12 -12 -12 -11 -11
-17 -15 -15 -14 -13 -10 -11 -11 -9 -9 -10 -10 -10 -10 -10 -11 -11 -11 -12 -12 -12 -13 -13 -13 -14 -14 -14 -14 -12 -13 -14 -13 -13 -13 -13 -13 -13 -13 -13 -13 -13 -13 -12 -12 -12 -12 -11 -12 -11
-19 -19 -16 -16 -15 -14 -12 -10 -9 -10 -10 -10 -10 -10 -10 -11 -11 -11 -12 -13 -13 -13 -14 -14 -14 -14 -13 -13 -12 -12 -12 -13 -12 -12 -13 -14 -14 -14 -14 -14 -13 -12 -12 -12 -12 -12 -12 -12 -12
-19 -18 -19 -18 -16 -15 -12 -11 -10 -10 -11 -11 -10 -10 -11 -12 -12 -12 -13 -13 -14 -14 -14 -15 -15 -14 -13 -13 -13 -13 -13 -13 -13 -13 -13 -14 -14 -13 -13 -13 -13 -13 -13 -13 -13 -13 -12 -12 -12
-17 -18 -18 -17 -16 -15 -13 -12 -11 -11 -12 -12 -11 -11 -12 -12 -12 -13 -13 -14 -15 -15 -15 -15 -14 -14 -14 -13 -13 -13 -13 -13 -13 -13 -13 -13 -13 -13 -13 -13 -13 -12 -12 -12 -13 -13 -13 -13 -12
-17 -18 -17 -17 -16 -15 -13 -12 -12 -12 -12 -12 -13 -13 -13 -13 -13 -13 -14 -14 -14 -14 -15 -14 -14 -14 -14 -13 -14 -14 -14 -13 -12 -13 -13 -13 -13 -12 -12 -12 -12 -12 -12 -12 -13 -13 -13 -13 -13
Height
5883 5884 5885 5886 5890 5890 5896 5900 5899 5895 5896 5897 5900 5901 5905 5907 5908 5912 5911 5912 5913 5913 5913 5914 5915 5915 5916 5916 5917 5916 5917 5917 5917 5917 5916 5916 5916 5916 5916 5916 5917 5917 5917 5916 5916 5915 5916 5917 5917
5875 5878 5881 5881 5881 5886 5897 5897 5897 5891 5891 5894 5895 5896 5898 5902 5905 5906 5908 5909 5910 5911 5911 5913 5914 5915 5915 5915 5915 5916 5916 5917 5917 5917 5916 5915 5915 5915 5915 5915 5916 5916 5916 5916 5915 5915 5915 5915 5916
5867 5870 5873 5873 5876 5884 5891 5892 5890 5886 5886 5889 5893 5892 5894 5896 5900 5902 5904 5907 5909 5910 5910 5910 5910 5912 5913 5913 5913 5914 5915 5916 5916 5916 5914 5914 5914 5914 5914 5914 5914 5915 5915 5915 5914 5914 5914 5914 5913
5860 5863 5865 5864 5873 5881 5883 5883 5883 5882 5880 5882 5887 5890 5892 5892 5895 5896 5899 5902 5904 5906 5908 5908 5908 5908 5910 5911 5911 5911 5912 5913 5914 5914 5914 5914 5913 5913 5913 5913 5913 5913 5912 5912 5912 5912 5912 5911 5911
5851 5854 5855 5859 5866 5873 5874 5876 5875 5875 5873 5875 5879 5883 5886 5888 5889 5891 5893 5897 5900 5902 5903 5904 5905 5906 5907 5908 5908 5909 5909 5910 5911 5911 5911 5911 5911 5911 5912 5911 5911 5911 5911 5911 5910 5909 5908 5908 5908
5843 5846 5846 5852 5859 5861 5865 5867 5866 5867 5866 5868 5870 5874 5880 5882 5884 5886 5888 5890 5895 5897 5898 5899 5901 5902 5904 5904 5905 5906 5907 5908 5908 5909 5909 5909 5908 5908 5908 5908 5908 5908 5907 5907 5907 5906 5906 5906 5905
5837 5838 5840 5844 5850 5853 5857 5858 5858 5859 5859 5858 5860 5865 5872 5875 5878 5880 5882 5884 5888 5890 5893 5895 5896 5898 5899 5900 5901 5901 5902 5904 5904 5904 5904 5905 5905 5905 5905 5905 5904 5904 5904 5903 5903 5902 5902 5902 5902
5829 5830 5834 5839 5843 5848 5848 5850 5852 5849 5852 5851 5850 5856 5864 5866 5870 5872 5875 5878 5881 5884 5888 5890 5893 5893 5893 5894 5896 5897 5897 5897 5899 5899 5899 5899 5900 5900 5900 5899 5899 5899 5899 5899 5898 5898 5898 5898 5898
5822 5823 5828 5832 5836 5842 5840 5839 5841 5842 5843 5844 5846 5850 5857 5860 5862 5865 5868 5871 5875 5876 5880 5884 5887 5888 5888 5888 5888 5890 5890 5892 5893 5893 5894 5896 5896 5896 5896 5894 5893 5893 5893 5892 5893 5893 5892 5892 5893
5814 5817 5822 5826 5828 5830 5830 5830 5831 5835 5835 5837 5844 5847 5850 5853 5855 5858 5863 5866 5869 5870 5874 5878 5879 5880 5881 5882 5882 5883 5885 5885 5886 5887 5888 5889 5889 5890 5890 5889 5888 5887 5887 5887 5887 5887 5887 5887 5887
5808 5811 5813 5816 5818 5820 5821 5823 5825 5828 5830 5831 5837 5841 5845 5846 5850 5853 5855 5857 5859 5864 5868 5873 5873 5875 5874 5874 5876 5877 5878 5879 5879 5880 5880 5881 5882 5883 5883 5883 5882 5882 5881 5880 5880 5880 5880 5880 5879
5797 5801 5803 5807 5808 5809 5813 5815 5818 5821 5824 5825 5829 5833 5838 5841 5843 5846 5849 5851 5853 5854 5858 5866 5867 5866 5866 5867 5867 5870 5871 5872 5873 5873 5874 5875 5876 5875 5876 5876 5876 5876 5875 5875 5874 5874 5873 5873 5873
5788 5790 5793 5797 5798 5800 5803 5807 5809 5813 5815 5818 5821 5826 5831 5834 5837 5840 5842 5845 5848 5851 5852 5857 5860 5859 5858 5858 5859 5861 5863 5865 5865 5864 5866 5867 5868 5868 5867 5867 5867 5868 5869 5869 5868 5866 5866 5866 5865
5778 5779 5782 5786 5789 5791 5795 5798 5801 5804 5805 5809 5813 5817 5823 5828 5831 5833 5836 5838 5840 5843 5847 5848 5852 5852 5852 5851 5853 5853 5854 5854 5855 5858 5857 5858 5858 5859 5858 5856 5857 5859 5859 5860 5859 5860 5858 5857 5858
5765 5768 5771 5776 5780 5782 5784 5789 5793 5796 5799 5804 5808 5812 5816 5820 5823 5827 5829 5832 5833 5835 5838 5841 5843 5844 5845 5845 5846 5847 5847 5846 5848 5849 5849 5848 5848 5850 5848 5846 5848 5847 5847 5848 5849 5849 5849 5848 5849
5753 5756 5761 5764 5768 5773 5775 5786 5786 5789 5792 5798 5802 5805 5808 5811 5814 5817 5821 5824 5826 5829 5832 5833 5835 5837 5838 5839 5840 5840 5840 5840 5840 5839 5840 5840 5840 5841 5841 5839 5837 5838 5839 5838 5838 5838 5839 5839 5841
5738 5745 5746 5751 5759 5762 5768 5774 5779 5780 5784 5789 5794 5799 5801 5803 5804 5806 5810 5815 5818 5821 5823 5825 5827 5828 5831 5832 5832 5832 5833 5833 5832 5832 5833 5832 5833 5832 5833 5831 5828 5828 5828 5827 5828 5828 5828 5829 5831
5725 5730 5736 5743 5750 5752 5758 5764 5767 5772 5776 5782 5785 5789 5791 5793 5795 5797 5800 5802 5805 5810 5813 5816 5818 5821 5822 5823 5824 5825 5826 5827 5825 5825 5824 5825 5826 5825 5825 5819 5814 5816 5819 5814 5815 5816 5819 5821 5823
5711 5718 5725 5731 5735 5741 5748 5751 5755 5760 5765 5770 5776 5780 5783 5786 5788 5790 5793 5795 5798 5801 5804 5807 5809 5812 5814 5814 5816 5817 5818 5818 5819 5819 5817 5817 5815 5814 5813 5795 5800 5808 5811 5812 5808 5810 5813 5815 5818
5692 5701 5710 5714 5721 5727 5733 5739 5743 5748 5756 5761 5766 5771 5775 5777 5781 5783 5785 5787 5790 5792 5795 5798 5801 5804 5804 5805 5807 5809 5810 5811 5811 5810 5809 5807 5807 5804 5798 5802 5800 5801 5802 5800 5802 5807 5806 5808 5809
5676 5685 5693 5700 5704 5711 5718 5725 5731 5739 5745 5751 5756 5761 5766 5770 5773 5776 5778 5781 5783 5785 5787 5788 5791 5793 5792 5795 5798 5801 5802 5804 5802 5801 5799 5800 5799 5797 5796 5794 5795 5796 5793 5795 5797 5801 5802 5802 5801
5656 5669 5674 5681 5687 5696 5702 5711 5720 5729 5735 5741 5747 5751 5756 5761 5764 5769 5773 5774 5777 5777 5776 5777 5781 5781 5781 5786 5789 5792 5795 5795 5792 5792 5793 5793 5792 5790 5786 5786 5785 5784 5786 5791 5793 5794 5793 5792 5792
5643 5645 5655 5662 5668 5676 5688 5700 5712 5718 5725 5731 5737 5742 5746 5750 5754 5761 5764 5767 5768 5769 5769 5769 5770 5772 5775 5778 5779 5782 5783 5785 5784 5784 5785 5785 5785 5785 5783 5779 5780 5783 5784 5785 5786 5785 5784 5783 5782
5615 5625 5636 5642 5650 5654 5681 5689 5700 5708 5717 5723 5729 5734 5737 5740 5746 5750 5753 5758 5761 5762 5761 5762 5763 5764 5766 5768 5769 5772 5776 5777 5774 5775 5776 5777 5778 5778 5778 5777 5777 5779 5779 5779 5778 5778 5776 5774 5772
5593 5604 5616 5626 5628 5655 5665 5673 5696 5695 5703 5711 5717 5723 5728 5732 5737 5740 5744 5748 5752 5755 5756 5756 5755 5757 5760 5759 5758 5758 5765 5766 5767 5767 5768 5770 5770 5771 5772 5771 5771 5772 5772 5771 5770 5769 5767 5765 5764
5578 5591 5601 5609 5622 5643 5646 5661 5678 5682 5692 5700 5707 5715 5721 5725 5729 5733 5737 5741 5744 5747 5748 5750 5751 5753 5753 5751 5749 5746 5757 5759 5758 5757 5760 5763 5763 5763 5764 5764 5763 5762 5762 5763 5763 5762 5760 5757 5755
5570 5576 5600 5606 5619 5627 5638 5655 5668 5674 5683 5693 5699 5706 5713 5718 5722 5725 5729 5734 5738 5741 5743 5744 5745 5747 5748 5743 5732 5738 5736 5752 5750 5751 5753 5754 5755 5756 5758 5759 5759 5758 5757 5756 5754 5752 5750 5747 5745
5563 5584 5584 5592 5605 5616 5634 5647 5657 5665 5674 5683 5691 5698 5705 5709 5714 5720 5723 5728 5732 5735 5737 5737 5739 5740 5741 5741 5738 5738 5743 5744 5743 5747 5750 5750 5751 5752 5753 5752 5751 5750 5747 5745 5743 5741 5738 5736 5733
5556 5566 5578 5593 5600 5611 5624 5636 5648 5656 5667 5676 5684 5691 5698 5703 5709 5713 5717 5722 5725 5728 5730 5730 5732 5732 5734 5735 5735 5738 5738 5740 5742 5744 5745 5745 5745 5745 5744 5743 5741 5739 5737 5734 5732 5729 5726 5724 5721
5556 5565 5578 5583 5595 5606 5618 5632 5642 5650 5660 5669 5676 5683 5691 5695 5702 5706 5711 5715 5719 5722 5723 5726 5728 5728 5728 5725 5727 5730 5732 5735 5736 5737 5738 5737 5738 5738 5736 5734 5732 5730 5727 5724 5721 5718 5716 5713 5711
Wind_Speed
34 36 36 35 36 33 27 19 20 27 30 33 34 35 31 27 26 21 20 19 17 19 16 11 8 6 5 6 7 5 6 7 6 3 1 2 3 3 3 3 3 3 3 3 2 2 3 4 5
36 36 38 40 40 35 24 23 22 29 32 31 33 36 35 33 29 29 27 26 23 21 18 18 16 13 8 6 7 7 6 8 8 7 5 4 3 4 3 3 2 2 2 3 2 3 4 4 5
37 38 40 41 40 34 28 26 29 34 36 34 31 35 36 36 33 32 32 30 29 25 22 24 23 21 16 12 10 11 10 8 8 8 7 6 4 5 6 5 5 4 4 4 4 4 5 5 5
35 37 39 41 36 33 33 32 35 37 40 38 34 35 35 36 34 34 33 30 30 28 25 21 20 22 19 17 18 16 14 13 10 10 9 8 8 7 8 8 7 7 7 6 7 7 8 8 7
41 39 40 38 33 33 36 38 36 39 44 43 42 38 37 37 37 37 36 34 31 26 24 23 19 19 18 19 18 16 14 16 15 14 14 13 11 11 13 13 13 12 11 12 12 11 11 12 11
41 42 43 41 36 36 36 42 45 42 46 46 48 45 40 39 38 38 37 37 34 32 30 27 24 22 22 22 22 21 19 18 16 16 15 14 14 15 17 18 18 18 17 16 17 16 14 13 13
37 39 38 37 33 35 32 39 48 46 48 52 54 50 45 43 42 41 41 40 38 37 35 33 30 28 27 27 27 27 24 21 20 19 19 18 18 18 18 19 20 21 21 20 20 19 18 18 18
34 36 34 31 31 28 31 37 42 48 49 53 56 52 48 48 45 46 46 44 42 42 38 38 36 38 39 37 35 31 28 23 22 23 23 23 22 22 22 23 24 24 24 24 24 23 23 23 22
36 37 31 28 29 24 32 35 40 46 48 54 56 53 50 49 49 49 48 47 44 45 44 42 41 40 40 41 39 36 31 27 26 26 28 27 27 28 29 28 27 26 27 26 26 25 25 25 24
38 36 32 29 27 26 34 39 38 39 47 51 52 52 52 51 52 49 47 45 45 45 44 42 41 38 35 38 38 35 33 31 29 29 30 30 31 33 34 34 32 31 31 31 31 29 29 29 29
37 31 31 30 29 30 34 36 39 39 41 46 47 49 52 52 49 48 47 47 47 48 46 39 42 39 40 39 38 36 34 34 34 33 34 34 34 36 38 39 37 36 36 36 35 36 35 35 34
38 35 34 31 31 36 35 36 37 38 41 42 41 42 45 49 51 50 49 49 51 51 48 37 39 42 39 40 42 40 36 36 35 35 36 36 38 39 41 44 43 43 43 40 40 41 39 36 37
42 40 39 35 34 36 37 36 37 37 41 40 40 38 40 41 44 49 51 50 47 46 46 44 39 43 44 45 43 43 43 39 41 38 38 39 42 42 39 45 47 51 47 44 44 43 48 39 39
45 44 42 40 39 38 38 37 37 38 42 40 38 36 37 38 40 42 43 44 44 41 41 40 36 40 45 49 43 38 32 35 43 43 38 39 41 43 40 41 47 46 50 48 49 46 36 38 42
52 50 48 44 43 42 41 38 34 38 40 40 38 35 34 35 37 38 41 40 39 38 36 31 29 29 34 36 32 30 32 31 32 32 34 36 35 39 38 40 40 36 46 47 53 55 47 44 35
58 56 52 49 47 46 45 37 37 37 35 35 34 33 34 34 34 38 39 40 39 37 32 32 31 32 33 37 37 34 33 33 33 34 34 35 36 38 37 36 39 39 44 46 47 48 46 40 34
64 59 57 56 51 50 48 43 38 38 36 35 33 33 35 37 37 39 40 40 37 36 37 35 33 34 35 37 35 37 34 34 34 34 36 38 39 41 43 43 45 39 39 43 42 44 35 31 29
63 63 60 56 53 53 50 47 44 39 38 36 37 38 39 40 41 40 40 41 40 38 37 37 37 36 36 38 37 37 37 35 36 34 37 39 41 41 44 49 49 43 36 41 33 31 33 31 33
64 63 62 59 57 56 51 50 49 42 42 43 42 42 41 40 40 39 39 40 41 40 39 39 40 40 40 41 39 37 35 36 36 34 39 40 41 42 45 34 36 48 33 39 26 34 34 36 39
63 61 62 64 62 60 56 54 52 49 42 40 40 41 41 42 41 39 39 40 41 41 41 42 42 41 42 42 40 37 35 36 35 36 38 40 40 38 25 51 35 29 36 30 22 32 32 38 44
67 61 60 64 66 64 61 58 54 50 45 44 43 42 42 41 40 39 39 41 42 42 41 45 43 41 43 42 38 35 34 35 36 39 40 40 42 45 46 31 33 29 23 29 30 34 38 41 42
71 64 64 66 67 66 64 61 55 51 48 48 47 45 42 40 38 35 35 37 39 42 44 44 43 43 43 40 37 35 34 35 38 39 38 41 45 50 48 39 29 30 29 29 33 34 35 36 39
66 69 66 64 64 64 63 58 55 54 51 48 48 45 42 40 40 32 32 33 35 37 38 39 41 40 40 37 38 36 38 34 34 35 37 39 40 42 42 34 29 27 30 30 35 36 37 38 40
62 66 62 60 56 60 61 59 58 54 52 49 47 46 43 41 37 32 31 31 32 33 36 37 37 38 39 40 39 39 32 34 35 34 35 37 37 34 31 27 25 25 28 31 33 34 37 40 43
66 61 59 57 59 61 60 61 56 57 54 51 48 47 44 37 34 33 33 31 30 30 32 35 35 36 35 38 42 38 34 38 42 36 35 33 31 27 27 28 28 28 30 32 34 38 41 43 45
67 70 72 66 67 64 66 62 60 62 52 54 49 46 42 36 33 33 32 30 30 30 32 29 27 31 33 34 41 37 31 38 35 34 29 25 25 25 26 30 32 35 37 38 40 42 42 42 42
46 53 51 53 56 62 64 61 59 60 55 47 44 45 40 34 31 32 32 31 32 30 26 25 23 31 30 39 27 22 22 28 19 23 22 24 25 27 32 37 42 44 44 44 42 42 40 40 41
48 48 49 45 48 55 56 56 59 57 49 46 45 41 33 28 30 31 33 30 26 25 24 28 29 33 33 29 29 15 16 17 18 20 19 18 23 30 33 35 36 38 40 41 40 40 40 42 42
42 41 46 47 49 48 54 57 54 52 44 41 42 37 30 30 31 31 33 30 26 27 28 31 28 29 24 20 17 16 17 19 19 15 19 23 26 29 30 32 33 34 34 36 38 39 41 41 43
39 37 38 45 45 48 47 49 47 45 41 42 37 35 33 32 30 30 32 30 30 30 32 27 21 16 19 13 15 21 19 21 19 24 26 25 26 27 27 29 31 32 34 36 38 40 41 41 42
Wind_Direction
239 242 246 249 248 244 239 239 239 247 245 246 249 257 259 257 254 253 249 251 259 255 252 246 229 248 257 269 276 260 248 253 254 253 274 309 314 326 341 2 23 26 23 13 2 351 340 340 343
237 237 241 245 246 247 243 244 243 247 248 249 249 251 259 259 259 257 259 263 266 265 265 273 271 259 266 310 290 284 263 254 247 245 249 245 275 301 294 292 304 311 321 334 336 326 310 308 316
242 240 237 237 242 244 243 242 239 244 253 251 249 253 256 259 262 260 265 267 275 277 286 292 290 283 280 270 269 305 292 268 254 239 238 245 252 263 267 260 268 279 292 295 298 301 300 298 299
243 245 247 245 242 238 241 237 239 244 251 254 253 252 259 264 264 266 270 268 269 278 285 294 289 291 292 290 277 287 275 268 259 256 253 259 261 263 268 266 263 262 272 280 290 293 291 288 287
242 243 244 248 245 239 236 237 236 238 245 251 256 255 256 257 263 268 271 276 276 279 283 291 288 283 289 295 292 282 278 274 267 258 256 258 268 277 277 277 276 277 279 277 276 275 275 277 277
246 245 245 245 240 236 232 231 234 235 241 245 251 253 252 257 261 263 267 273 274 273 274 278 282 285 290 289 283 285 284 279 274 271 266 261 263 264 267 270 274 277 275 275 274 272 272 272 272
250 249 249 248 246 240 235 230 232 231 237 241 244 246 247 249 253 257 259 262 264 266 269 270 274 278 283 285 284 279 276 277 277 270 268 266 268 268 266 268 269 270 270 269 267 267 266 266 267
252 252 251 248 245 238 237 234 229 232 230 239 245 242 239 244 244 251 254 256 260 262 265 266 266 268 272 276 279 272 269 266 270 274 273 274 274 272 269 267 266 265 265 264 261 260 262 264 266
256 255 254 251 250 241 234 232 227 230 234 234 242 247 244 243 244 245 249 253 256 260 261 264 268 270 272 275 270 264 257 257 260 264 269 274 276 275 273 269 265 264 262 258 256 256 256 257 259
254 257 257 258 252 240 233 234 234 230 236 238 238 243 246 244 247 249 250 253 253 257 259 264 269 272 272 269 262 255 255 254 254 259 264 267 270 271 270 267 265 262 260 259 256 255 255 256 259
256 257 255 246 245 241 237 237 239 237 236 240 240 241 246 252 252 251 255 257 258 261 266 264 270 271 267 258 254 258 259 260 258 257 259 262 265 268 270 267 262 260 258 255 253 254 255 255 258
254 251 251 246 235 235 235 235 239 239 238 241 241 240 241 246 249 252 253 254 258 261 263 265 264 268 260 256 256 258 260 262 262 261 263 264 266 269 272 269 266 265 259 257 259 260 258 261 272
249 249 249 245 239 239 235 237 237 239 236 240 245 245 243 243 249 252 254 259 265 268 270 269 267 267 270 268 265 261 263 274 259 257 260 263 268 269 276 268 268 264 264 263 260 259 267 255 264
245 249 248 245 243 241 241 238 241 241 237 241 245 249 249 248 247 253 256 258 261 262 265 270 272 270 272 277 278 277 270 265 262 262 258 260 269 269 272 261 262 266 260 263 261 269 253 262 264
241 243 244 243 244 245 244 241 244 245 242 245 248 251 256 257 259 258 257 258 259 262 265 269 267 265 268 269 271 269 266 262 259 262 262 258 260 264 264 262 255 266 254 254 262 267 253 259 263
241 242 240 242 241 241 246 245 246 246 243 246 246 249 251 252 254 255 254 253 255 260 263 261 262 264 264 265 261 264 262 261 260 259 260 260 260 265 263 252 254 261 259 254 263 259 266 252 266
239 240 237 240 241 244 244 245 242 244 244 245 244 243 246 252 253 256 258 256 253 253 254 255 254 255 258 262 266 267 264 262 259 256 259 259 259 261 262 261 258 253 256 254 241 240 252 263 266
244 238 239 239 239 241 244 247 248 244 245 243 246 247 245 245 249 253 257 260 261 258 257 259 261 259 262 266 267 268 266 263 262 258 259 261 261 264 265 264 257 246 258 244 243 262 262 272 272
250 246 242 240 242 241 242 242 244 242 240 241 243 245 246 249 250 253 255 257 259 262 263 264 266 266 263 264 265 266 267 265 263 263 259 257 258 262 259 223 234 266 250 240 255 276 273 271 282
244 243 242 240 240 239 239 240 242 243 241 242 244 243 244 249 252 249 251 254 257 259 261 262 262 261 261 259 260 262 265 264 265 262 263 258 259 258 237 249 255 242 253 243 267 263 283 287 290
241 239 239 240 240 239 238 237 239 241 242 242 243 245 249 252 250 252 252 255 256 259 261 261 261 262 261 260 259 259 261 261 261 262 260 261 256 258 265 255 249 267 272 286 292 290 286 288 288
235 234 233 235 237 239 236 235 235 239 241 240 240 243 246 249 249 247 252 254 254 254 257 262 262 259 259 262 260 258 259 259 258 258 261 259 262 262 278 282 281 288 298 287 286 291 286 285 285
228 228 229 229 233 236 236 235 230 233 236 238 239 241 243 248 249 245 244 245 249 251 254 258 259 261 262 258 256 254 253 252 248 254 259 263 268 270 272 282 281 282 288 286 282 287 288 288 287
223 224 222 224 227 230 232 234 230 231 234 237 240 241 242 243 248 246 244 244 242 244 251 257 263 267 263 254 247 250 244 242 246 249 254 257 260 265 272 277 281 277 275 275 278 281 283 284 286
224 222 221 219 220 224 225 231 230 230 227 231 235 239 240 240 241 240 238 238 240 242 251 259 263 263 265 263 246 237 235 238 251 239 245 252 253 259 266 272 275 276 276 278 282 283 282 282 284
219 220 222 220 221 222 223 224 227 228 227 227 233 238 240 236 233 235 236 237 239 240 245 249 262 259 270 261 231 237 227 244 240 232 237 243 244 252 264 270 274 277 278 280 280 280 281 283 283
212 211 216 220 223 223 222 223 226 228 229 227 232 237 240 240 232 231 236 235 237 238 245 258 262 269 261 274 254 228 220 230 231 234 236 244 256 261 264 267 267 269 276 278 279 280 282 286 288
221 220 208 206 213 215 219 222 223 225 226 227 230 237 236 234 235 231 229 228 231 238 246 255 263 262 267 266 255 232 257 259 259 258 267 273 271 267 268 270 273 275 275 277 279 283 287 290 291
205 207 211 218 212 211 213 214 217 222 221 224 228 233 231 228 232 230 227 228 232 237 250 265 267 265 265 264 241 256 274 281 273 251 263 270 275 276 277 278 279 282 284 285 287 290 292 293 292
202 220 213 213 207 212 213 216 216 220 220 220 221 224 225 229 227 226 229 234 241 244 251 252 257 254 259 257 260 266 268 270 261 268 272 276 280 284 288 292 295 294 294 294 293 293 292 291 292